Fort Collins, CO

6:36 PM MDT on August 27, 2016 (GMT -0600)
Fort Collins-Loveland Municipal

Weather History for KFNL - December, 2012

Change the Weather History Date:

Friday, December 7, 2012

  Actual Average Record
Temperature  
Mean Temperature 34 °F -  
Max Temperature 46 °F - 62 °F (2003)
Min Temperature 21 °F - -9 °F (2013)
Degree Days  
Heating Degree Days 32    
Month to date heating degree days  
Cooling Degree Days 0    
Month to date cooling degree days  
Moisture  
Dew Point 21 °F    
Average Humidity 64    
Maximum Humidity 93    
Minimum Humidity 37    
Precipitation  
Precipitation 0.00 in - 0.06 in (2007)
Sea Level Pressure  
Sea Level Pressure 29.87 in    
Wind  
Wind Speed 6 mph (ESE)    
Max Wind Speed 17 mph    
Max Gust Speed 20 mph    
Visibility 10 miles    
Events      
T = Trace of Precipitation, MM = Missing Value Source: NWS Daily Summary

Daily Weather History Graph

Daily Weather History Graph

Search for Another Location

Airport or City:

Trip Planner

Search our weather history database for the weather conditions in past years. The results will help you decide how hot, cold, wet, or windy it might be!

Date:

Astronomy

Dec. 07, 2012 Rise Set
Actual Time 7:10 AM MST 4:33 PM MST
Civil Twilight 6:39 AM MST 5:03 PM MST
Nautical Twilight 6:05 AM MST 5:37 PM MST
Astronomical Twilight 5:32 AM MST 6:10 PM MST
Moon 12:31 AM MST (12/7) 12:32 PM MST (12/7)
Length of Visible Light 10h 24m
Length of Day
9h 23m
Last Quarter, 38% of the Moon is Illuminated
Dec 7
Last Quarter
Dec 13
New
Dec 19
First Quarter
Dec 28
Full
Jan 4
Last Quarter

Hourly Weather History & Observations

Time (MST) Temp. Windchill Dew Point Humidity Pressure Visibility Wind Dir Wind Speed Gust Speed Precip Events Conditions
12:15 AM 26.6 °F 19.1 °F 19.4 °F 74% 29.87 in 10.0 mi NNW 6.9 mph - N/A   Clear
12:35 AM 26.6 °F 19.1 °F 21.2 °F 80% 29.86 in 10.0 mi North 6.9 mph - N/A   Clear
12:55 AM 26.6 °F 20.0 °F 21.2 °F 80% 29.85 in 10.0 mi North 5.8 mph - N/A   Clear
1:15 AM 24.8 °F 17.9 °F 19.4 °F 80% 29.85 in 10.0 mi North 5.8 mph - N/A   Clear
1:35 AM 24.8 °F 20.5 °F 19.4 °F 80% 29.84 in 10.0 mi NNE 3.5 mph - N/A   Clear
1:55 AM 24.8 °F - 19.4 °F 80% 29.84 in 10.0 mi Calm Calm - N/A   Clear
2:15 AM 24.8 °F 17.9 °F 21.2 °F 86% 29.84 in 10.0 mi North 5.8 mph - N/A   Clear
2:35 AM 24.8 °F - 19.4 °F 80% 29.84 in 10.0 mi Calm Calm - N/A   Clear
2:55 AM 24.8 °F - 19.4 °F 80% 29.84 in 10.0 mi Calm Calm - N/A   Clear
3:15 AM 24.8 °F 17.9 °F 21.2 °F 86% 29.82 in 10.0 mi North 5.8 mph - N/A   Clear
3:35 AM 21.2 °F 14.9 °F 17.6 °F 86% 29.82 in 10.0 mi North 4.6 mph - N/A   Clear
3:55 AM 24.8 °F 20.5 °F 21.2 °F 86% 29.82 in 10.0 mi NW 3.5 mph - N/A   Clear
4:15 AM 23.0 °F - 19.4 °F 86% 29.82 in 10.0 mi Calm Calm - N/A   Clear
4:35 AM 24.8 °F 11.9 °F 21.2 °F 86% 29.79 in 10.0 mi ENE 16.1 mph 19.6 mph N/A   Clear
4:55 AM 26.6 °F 20.0 °F 19.4 °F 74% 29.80 in 10.0 mi ENE 5.8 mph - N/A   Clear
5:15 AM 24.8 °F 16.9 °F 17.6 °F 74% 29.81 in 10.0 mi SSW 6.9 mph - N/A   Clear
5:35 AM 23.0 °F 14.7 °F 17.6 °F 80% 29.81 in 10.0 mi South 6.9 mph - N/A   Partly Cloudy
5:55 AM 21.2 °F 16.4 °F 17.6 °F 86% 29.81 in 10.0 mi SSW 3.5 mph - N/A   Partly Cloudy
6:15 AM 24.8 °F 20.5 °F 19.4 °F 80% 29.81 in 10.0 mi SE 3.5 mph - N/A   Clear
6:35 AM 24.8 °F 20.5 °F 17.6 °F 74% 29.83 in 10.0 mi South 3.5 mph - N/A   Clear
6:55 AM 24.8 °F 15.3 °F 19.4 °F 80% 29.82 in 10.0 mi ESE 9.2 mph - N/A   Clear
7:15 AM 24.8 °F - 19.4 °F 80% 29.84 in 10.0 mi Calm Calm - N/A   Clear
7:35 AM 21.2 °F - 17.6 °F 86% 29.83 in 10.0 mi Calm Calm - N/A   Clear
7:55 AM 21.2 °F - 15.8 °F 80% 29.85 in 10.0 mi Calm Calm - N/A   Clear
8:15 AM 23.0 °F 17.0 °F 17.6 °F 80% 29.85 in 10.0 mi NE 4.6 mph - N/A   Clear
8:35 AM 26.6 °F 20.0 °F 24.8 °F 93% 29.85 in 10.0 mi North 5.8 mph - N/A   Clear
8:55 AM 30.2 °F - 24.8 °F 80% 29.85 in 10.0 mi Calm Calm - N/A   Clear
9:15 AM 30.2 °F 25.4 °F 24.8 °F 80% 29.84 in 10.0 mi ESE 4.6 mph - N/A   Clear
9:35 AM 33.8 °F 30.8 °F 24.8 °F 70% 29.85 in 10.0 mi NNE 3.5 mph - N/A   Clear
9:55 AM 37.4 °F 33.8 °F 26.6 °F 65% 29.86 in 10.0 mi East 4.6 mph - N/A   Clear
10:15 AM 41.0 °F 37.1 °F 26.6 °F 57% 29.85 in 10.0 mi ESE 5.8 mph - N/A   Clear
10:35 AM 42.8 °F 35.8 °F 26.6 °F 53% 29.85 in 10.0 mi East 13.8 mph - N/A   Clear
10:55 AM 44.6 °F 37.8 °F 28.4 °F 53% 29.85 in 10.0 mi East 15.0 mph - N/A   Clear
11:15 AM 42.8 °F 35.4 °F 26.6 °F 53% 29.85 in 10.0 mi East 15.0 mph - N/A   Clear
11:35 AM 44.6 °F 37.8 °F 24.8 °F 46% 29.85 in 10.0 mi ESE 15.0 mph - N/A   Clear
11:55 AM 44.6 °F 37.2 °F 24.8 °F 46% 29.84 in 10.0 mi East 17.3 mph - N/A   Clear
12:15 PM 46.4 °F 41.1 °F 24.8 °F 43% 29.84 in 10.0 mi ESE 11.5 mph - N/A   Clear
12:35 PM 46.4 °F 41.5 °F 24.8 °F 43% 29.84 in 10.0 mi ESE 10.4 mph - N/A   Clear
12:55 PM 46.4 °F 41.1 °F 23.0 °F 40% 29.83 in 10.0 mi ESE 11.5 mph - N/A   Clear
1:15 PM 46.4 °F 40.1 °F 23.0 °F 40% 29.84 in 10.0 mi ESE 15.0 mph - N/A   Clear
1:35 PM 46.4 °F 40.4 °F 23.0 °F 40% 29.83 in 10.0 mi ESE 13.8 mph - N/A   Clear
1:55 PM 46.4 °F 40.7 °F 23.0 °F 40% 29.84 in 10.0 mi ESE 12.7 mph - N/A   Clear
2:15 PM 46.4 °F 41.1 °F 21.2 °F 37% 29.85 in 10.0 mi SE 11.5 mph - N/A   Clear
2:35 PM 46.4 °F 41.5 °F 23.0 °F 40% 29.86 in 10.0 mi SSE 10.4 mph - N/A   Clear
2:55 PM 46.4 °F 41.9 °F 21.2 °F 37% 29.87 in 10.0 mi SE 9.2 mph - N/A   Clear
3:15 PM 44.6 °F 38.4 °F 21.2 °F 39% 29.87 in 10.0 mi SE 12.7 mph - N/A   Clear
3:35 PM 44.6 °F 38.8 °F 21.2 °F 39% 29.88 in 10.0 mi SE 11.5 mph - N/A   Partly Cloudy
3:55 PM 44.6 °F 38.8 °F 19.4 °F 37% 29.89 in 10.0 mi SE 11.5 mph - N/A   Mostly Cloudy
4:15 PM 42.8 °F 38.0 °F 19.4 °F 39% 29.90 in 10.0 mi SE 8.1 mph - N/A   Overcast
4:35 PM 41.0 °F 34.3 °F 19.4 °F 42% 29.90 in 10.0 mi SE 11.5 mph - N/A   Overcast
4:55 PM 39.2 °F 33.0 °F 19.4 °F 45% 29.90 in 10.0 mi SE 9.2 mph - N/A   Scattered Clouds
5:15 PM 35.6 °F 29.2 °F 19.4 °F 52% 29.91 in 10.0 mi SE 8.1 mph - N/A   Clear
5:35 PM 35.6 °F 30.7 °F 19.4 °F 52% 29.92 in 10.0 mi SE 5.8 mph - N/A   Clear
5:55 PM 33.8 °F 27.7 °F 19.4 °F 56% 29.92 in 10.0 mi SSE 6.9 mph - N/A   Clear
6:15 PM 30.2 °F 21.9 °F 17.6 °F 60% 29.92 in 10.0 mi South 9.2 mph - N/A   Clear
6:35 PM 30.2 °F - 19.4 °F 64% 29.94 in 10.0 mi Calm Calm - N/A   Clear
6:55 PM 32.0 °F - 19.4 °F 60% 29.95 in 10.0 mi Calm Calm - N/A   Scattered Clouds
7:35 PM 33.8 °F 30.8 °F 19.4 °F 56% 29.95 in 10.0 mi ESE 3.5 mph - N/A   Scattered Clouds
7:55 PM 33.8 °F - 19.4 °F 56% 29.95 in 10.0 mi Calm Calm - N/A   Mostly Cloudy
8:15 PM 33.8 °F 28.6 °F 19.4 °F 56% 29.95 in 10.0 mi SSE 5.8 mph - N/A   Scattered Clouds
8:35 PM 32.0 °F 25.6 °F 17.6 °F 55% 29.95 in 10.0 mi South 6.9 mph - N/A   Scattered Clouds
8:55 PM 30.2 °F 25.4 °F 19.4 °F 64% 29.95 in 10.0 mi South 4.6 mph - N/A   Partly Cloudy
9:15 PM 32.0 °F 27.5 °F 21.2 °F 64% 29.95 in 10.0 mi South 4.6 mph - N/A   Partly Cloudy
9:35 PM 30.2 °F 25.4 °F 21.2 °F 69% 29.93 in 10.0 mi South 4.6 mph - N/A   Partly Cloudy
9:55 PM 30.2 °F 25.4 °F 19.4 °F 64% 29.94 in 10.0 mi South 4.6 mph - N/A   Clear
10:15 PM 30.2 °F - 21.2 °F 69% 29.93 in 10.0 mi Calm Calm - N/A   Partly Cloudy
10:35 PM 32.0 °F - 21.2 °F 64% 29.92 in 10.0 mi Calm Calm - N/A   Clear
10:55 PM 30.2 °F 25.4 °F 19.4 °F 64% 29.92 in 10.0 mi SE 4.6 mph - N/A   Partly Cloudy
11:15 PM 30.2 °F 25.4 °F 19.4 °F 64% 29.92 in 10.0 mi SE 4.6 mph - N/A   Scattered Clouds
11:35 PM 30.2 °F 24.3 °F 19.4 °F 64% 29.91 in 10.0 mi SE 5.8 mph - N/A   Partly Cloudy
11:55 PM 30.2 °F 23.4 °F 19.4 °F 64% 29.91 in 10.0 mi ESE 6.9 mph - N/A   Clear